Location: Bun Machan
(52.1403°N, 7.3744°W)
Time: 18:14:27
(UTC+00:00)

NOSS 7 (D) - Pass Details

Date: 14 July 2020
Orbit: 307 x 617 km, 63.3° (Epoch: 13 August)

Event Time Altitude Azimuth Distance (km) Brightness Sun altitude
Rises 02:07:15 0° 313° (NW) 2,069 11.1 -13.6°
Reaches altitude 10° 02:09:08 10° 312° (NW) 1,259 9.9 -13.4°
Maximum altitude 02:11:52 79° 226° (SW) 358 6.7 -13.3°
Drops below altitude 10° 02:14:51 10° 139° (SE) 1,365 9.6 -13.1°
Enters shadow 02:15:48 - 139° (SE) 1,769 10.2 -13.0°
